sat.trackr.live / text

‹ back to catalog

STARLINK-31346

NORAD 58943 · 2024-027N

PAYLOAD ACTIVE UNKNOWN

§ Identity

Operator
Country
US
Launch date
2024-02-10
Launch site
AFWTR
Launch vehicle
Mass (kg)
RCS (m²)

Purposes: comms

External: N2YO · Heavens-Above · Gunter

§ Orbital elements

Epoch: 2026-05-24T22:29:13.242048Z

Period
94.11 min
Inclination
53.1606°
Eccentricity
0.0001203
Mean motion
15.30199613 rev/d
Perigee alt
474.4 km
Apogee alt
476.0 km
Semi-major
6,853.4 km
B*
7.5417e-5
RAAN
313.2345°
Arg perigee
81.8579°
Mean anomaly
278.2558°
Rev number
12,903

§ Raw data

STARLINK-313461 58943U 24027N   26144.93695882  .00001875  00000+0  75417-4 0  99992 58943  53.1606 313.2345 0001203  81.8579 278.2558 15.30199613129037

JSON: /api/v1/satellites/58943 · /tle

For live sub-satellite position, see the globe view (requires WebGL).

§ Visibility from observer

Set your observer location to see the next 7 days of passes ≥ 10°. The values pass through the URL so the page stays shareable.

No JS? Fill the form by hand. The geolocation button needs JavaScript.